This is the latest recevied weather packets stored in our database for station/object WA4IKQ. If no packets are shown the sender has not sent any weather packets the latest 10 day(s).
| Time | Temp. | Humidity | Pressure | Rain* | Wind** | Luminosity | Snow |
|---|---|---|---|---|---|---|---|
| 1777893894 | 18.33° C | 85% | 1016.1 hPa | 0 mm | 0.89 m/s, 330° | - | - |
| 1777893593 | 17.78° C | 86% | 1016 hPa | 0 mm | 0 m/s | - | - |
| 1777893318 | 17.78° C | 86% | 1016 hPa | 0 mm | 0.89 m/s, 333° | - | - |
| 1777893293 | 17.78° C | 86% | 1016 hPa | 0 mm | 0.89 m/s, 342° | - | - |
| 1777892993 | 17.78° C | 86% | 1016 hPa | 0 mm | 0.89 m/s, 333° | - | - |
| 1777892701 | 17.78° C | 86% | 1016 hPa | 0 mm | 1.34 m/s, 295° | - | - |
| 1777892391 | 17.78° C | 86% | 1015.9 hPa | 0 mm | 0 m/s | - | - |
| 1777892091 | 17.78° C | 85% | 1015.8 hPa | 0 mm | 0 m/s | - | - |
| 1777891792 | 17.78° C | 85% | 1015.7 hPa | 0 mm | 0 m/s | - | - |
| 1777891706 | 17.78° C | 84% | 1015.4 hPa | 0 mm | 0 m/s | - | - |
| 1777891194 | 17.78° C | 85% | 1015.5 hPa | 0 mm | 0.89 m/s, 316° | - | - |
| 1777890893 | 17.78° C | 84% | 1015.4 hPa | 0 mm | 0 m/s | - | - |
| 1777890590 | 17.78° C | 84% | 1015.5 hPa | 0 mm | 0.45 m/s, 308° | - | - |
| 1777890292 | 18.33° C | 84% | 1015.6 hPa | 0 mm | 0 m/s | - | - |
| 1777889992 | 18.33° C | 83% | 1015.6 hPa | 0 mm | 0.89 m/s, 311° | - | - |
| 1777889392 | 18.33° C | 83% | 1015.5 hPa | 0 mm | 0.45 m/s, 293° | - | - |
| 1777889034 | 18.33° C | 83% | 1015.5 hPa | 0 mm | 0.89 m/s, 332° | - | - |
| 1777888791 | 18.33° C | 83% | 1015.5 hPa | 0 mm | 0.89 m/s, 332° | - | - |
| 1777888559 | 18.33° C | 82% | 1015.5 hPa | 0 mm | 0.89 m/s, 316° | - | - |
| 1777888490 | 18.33° C | 82% | 1015.5 hPa | 0 mm | 1.34 m/s, 308° | - | - |
| 1777888190 | 18.33° C | 82% | 1015.5 hPa | 0 mm | 0.89 m/s, 316° | - | - |
| 1777887591 | 18.33° C | 82% | 1015.6 hPa | 0 mm | 0.45 m/s, 297° | - | - |
| 1777887291 | 18.33° C | 82% | 1015.5 hPa | 0 mm | 0.45 m/s, 329° | - | - |
| 1777887126 | 18.33° C | 82% | 1015.6 hPa | 0 mm | 1.34 m/s, 336° | - | - |
| 1777886991 | 18.33° C | 82% | 1015.6 hPa | 0 mm | 0.45 m/s, 295° | - | - |
* Rain latest hour (hover to see other rain measurements)
** Current wind speed in m/s (hover to see current wind gust speed)